[[{"header":{"parameterUnit":"m.s-1","parameterCategory":1,"la1":30.2991,"la2":30.254,"lo1":-89.0895,"lo2":-89.0444,"dy":0.0017,"dx":0.0017,"nx":28,"ny":28,"refTime":"2024-10-07T03:00:00:Z","depth":0,"parameterNumber":2,"parameterNumberName":"U-component_of_WINDS"},"data":[0,0,0,0,0,0,0,0,0,0,0,0,0,0,0,0,0,0,0,0,0,0,0,0,0,0,0,0,0,0,0,0,0,0,0,0,0,0,0,0,0,0,0,0,0,0,0,0,0,0,0,0,0,0,0,0,0,0,-3.9328,-3.9329,0,-3.937,-3.9371,-3.9371,-3.932,-3.9318,-3.9316,-3.9314,-3.9357,-3.936,-3.9362,0,0,0,0,0,0,0,0,0,0,0,0,0,-3.9203,-3.9205,-3.9328,-3.9329,-3.9329,-3.937,-3.9371,-3.9372,-3.932,-3.9318,-3.9316,-3.9313,-3.9356,-3.9359,-3.9363,0,0,0,0,0,0,0,0,0,0,0,0,0,-3.9252,-3.9206,-3.9328,-3.9309,-3.9307,-3.937,-3.9371,-3.9372,-3.9321,-3.9318,-3.9315,-3.9312,-3.9355,-3.9359,-3.9363,-3.9447,0,0,-3.9377,-3.9378,0,0,0,0,0,0,0,0,-3.925,-3.9257,-3.9311,-3.931,-3.9309,-3.9337,-3.9342,-3.9397,-3.9321,-3.9316,-3.9314,-3.9311,-3.9352,-3.9357,-3.9371,-3.9449,-3.9451,-3.9377,-3.938,-3.9381,-3.9383,0,0,0,0,0,0,0,-3.9246,-3.9255,-3.9345,-3.9312,-3.9311,-3.9298,-3.9302,-3.9352,-3.935,-3.9316,-3.9312,-3.9318,-3.9351,-3.9367,-3.9372,-3.9452,-3.9377,-3.9381,-3.9383,-3.9385,-3.9602,-3.9605,0,0,0,0,0,0,-3.9245,-3.9252,-3.9344,-3.9346,-3.9272,-3.9302,-3.9307,-3.9331,-3.9349,-3.9349,-3.932,-3.9315,-3.9361,-3.9367,-3.9373,-3.9473,-3.9381,-3.9385,-3.9388,-3.9598,-3.9602,-3.9606,0,0,0,0,0,0,-3.9243,-3.9254,-3.9342,-3.9298,-3.9309,-3.9307,-3.9335,-3.9333,-3.9349,-3.9352,-3.9351,-3.9337,-3.9359,-3.9367,-3.9429,-3.9474,-3.9387,-3.9391,-3.9595,-3.96,-3.9604,-3.9674,0,0,0,0,0,0,-3.9239,-3.9253,-3.9285,-3.93,-3.9311,-3.9398,-3.9338,-3.9336,-3.9356,-3.935,-3.9368,-3.9368,-3.9357,-3.9423,-3.9434,-3.9478,-3.9395,-3.9591,-3.9597,-3.9602,-3.9668,-3.9681,-3.9692,0,0,0,0,0,-3.9235,-3.9303,-3.9287,-3.9298,-3.9351,-3.9401,-3.9407,-3.9394,-3.936,-3.9392,-3.9395,-3.9367,-3.9467,-3.943,-3.9441,-3.9488,-3.9588,-3.9595,-3.9602,-3.9662,-3.9678,-3.9691,0,0,0,0,0,0,-3.9293,-3.9304,-3.9287,-3.9362,-3.9381,-3.9392,-3.9432,-3.9411,-3.944,-3.9433,-3.9415,-3.9419,-3.9486,-3.9493,-3.9452,-3.9571,-3.9522,-3.9532,-3.9564,-3.9579,-3.959,-3.9588,-3.9398,0,0,0,0,0,-3.9315,-3.9355,-3.9362,-3.9427,-3.9437,-3.9433,-3.9454,-3.9443,-3.9462,-3.9469,-3.9476,-3.9495,-3.9531,-3.9555,-3.9588,-3.9668,-3.9672,-3.9706,-3.9718,-3.9727,-3.9736,-3.978,-3.9796,-3.9629,-3.9629,-3.9629,0,0,-3.936,-3.9371,-3.9397,-3.9439,-3.9452,-3.9494,-3.944,-3.9486,-3.9517,-3.9476,-3.9536,-3.9542,-3.9562,-3.9634,-3.9666,-3.9642,-3.9783,-3.9737,-3.9744,-3.9748,-3.9789,-3.9805,-3.9819,-3.9634,-3.9633,-3.9632,0,0,-3.9463,-3.9475,-3.9531,-3.9546,-3.9567,-3.9564,-3.9578,-3.9592,-3.9595,-3.9655,-3.9625,-3.9661,-3.9723,-3.9739,-3.9755,-3.9865,-3.9841,-3.9876,-3.9939,-3.9982,-3.9995,-4.0007,-4.0047,-4.0061,-3.9885,-3.9885,-3.9885,0,-3.9517,-3.9578,-3.9563,-3.9611,-3.9631,-3.9596,-3.9653,-3.9668,-3.9699,-3.9713,-3.9685,-3.9763,-3.9774,-3.985,-3.9877,-3.9891,-3.9906,-3.9875,-3.9994,-4.0006,-4.0016,-4.0055,-4.007,-3.9889,-3.9889,-3.9889,-3.9888,0,-3.9643,-3.9686,-3.9729,-3.976,-3.9785,-3.9837,-3.9829,-3.9856,-3.9842,-3.9842,-3.9904,-3.9916,-3.9951,-3.9968,-3.9955,-4.0042,-4.0027,-3.9997,-3.9948,-4.0037,-4.0073,-4.0087,-3.9896,-3.9894,-3.9893,-3.9892,0,0,-3.9785,-3.9807,-3.9824,-3.9838,-3.9859,-3.9892,-3.9942,-3.9977,-4.0001,-4.0023,-4.0066,-4.0119,-4.0092,-4.0111,-4.0099,-4.0136,-4.0224,-4.0102,-4.0102,-4.0125,-4.0323,-4.0346,-4.0363,-4.0208,-4.0211,-4.0213,-4.0321,0,-3.9889,-3.9978,-3.9966,-4.0051,-4.0091,-4.0059,-4.0103,-4.0121,-4.0122,-4.0156,-4.0157,-4.0196,-4.0156,-4.0168,-4.0203,-4.0206,-4.0264,-4.0198,-4.0248,-4.025,-4.0245,-4.0381,-4.0406,-4.0508,-4.0335,-4.0337,-4.0339,0,-4.0023,-4.0051,-4.0141,-4.0157,-4.0173,-4.0213,-4.0245,-4.0277,-4.0297,-4.0295,-4.0316,-4.0298,-4.0349,-4.0298,-4.0369,-4.0324,-4.0344,-4.0348,-4.0352,-4.0357,-4.0301,-4.0391,-4.054,-4.0556,-4.0361,-4.0359,-4.0357,0,-4.0119,-4.0179,-4.0241,-4.0254,-4.0273,-4.0302,-4.0312,-4.0328,-4.0351,-4.0378,-4.0392,-4.0425,-4.0443,-4.0469,-4.046,-4.0424,-4.0533,-4.0481,-4.0533,-4.0534,-4.0559,-4.0557,-4.0714,-4.057,-4.0569,-4.0569,-4.0569,0,-4.0238,-4.0294,-4.0284,-4.0323,-4.0385,-4.037,-4.0432,-4.0437,-4.0452,-4.0491,-4.0464,-4.0501,-4.0486,-4.0522,-4.0515,-4.0575,-4.0583,-4.0584,-4.0582,-4.0587,-4.0587,-4.06,-4.0594,-4.0573,-4.0572,-4.0571,-4.0571,0,-4.0356,-4.0352,-4.0417,-4.043,-4.0435,-4.048,-4.0491,-4.0527,-4.0526,-4.0575,-4.0586,-4.0585,-4.0626,-4.0619,-4.0664,-4.0659,-4.0735,-4.0723,-4.0729,-4.0726,-4.0779,-4.0775,-4.0951,-4.0973,-4.0814,-4.0815,-4.0816,0,-4.0433,-4.0475,-4.0494,-4.0518,-4.053,-4.0569,-4.0591,-4.0578,-4.0603,-4.0629,-4.0662,-4.07,-4.073,-4.0797,-4.08,-4.0835,-4.0825,-4.0884,-4.083,-4.0834,-4.0827,-4.0825,-4.083,-4.0895,-4.0897,-4.0898,-4.0899,0,-4.057,-4.0565,-4.0599,-4.0633,-4.0661,-4.0687,-4.0709,-4.0731,-4.072,-4.0749,-4.0791,-4.0814,-4.086,-4.0899,-4.0932,-4.0941,-4.0919,-4.0916,-4.093,-4.0937,-4.0939,-4.094,-4.0759,-4.0912,-4.0911,-4.091,-4.0909,-4.0909,-4.067,-4.0707,-4.0726,-4.0765,-4.0781,-4.0803,-4.0838,-4.0841,-4.0876,-4.0913,-4.0903,-4.0951,-4.0969,-4.1011,-4.1024,-4.1061,-4.1039,-4.1059,-4.1065,-4.107,-4.1077,-4.0932,-4.1067,-4.1066,-4.1066,-4.1065,-4.1065,0,-4.0807,-4.0817,-4.0853,-4.0887,-4.0917,-4.0894,-4.0918,-4.0945,-4.0988,-4.1007,-4.1038,-4.1086,-4.1124,-4.113,-4.1166,-4.1194,-4.1185,-4.1204,-4.1203,-4.1206,-4.1094,-4.1079,-4.1211,-4.1211,-4.1211,-4.1211,-4.1211,-4.1211,-4.0882,-4.0943,-4.0941,-4.1011,-4.1021,-4.1068,-4.1084,-4.1104,-4.112,-4.1175,-4.1207,-4.121,-4.1225,-4.1262,-4.1295,-4.1296,-4.1311,-4.1335,-4.1332,-4.1228,-4.1213,-4.1199,-4.1185,-4.1338,-4.1338,-4.144,-4.1441,-4.1442]},{"header":{"parameterUnit":"m.s-1","parameterCategory":1,"la1":30.2991,"la2":30.254,"lo1":-89.0895,"lo2":-89.0444,"dy":0.0017,"dx":0.0017,"nx":28,"ny":28,"refTime":"2024-10-07T03:00:00:Z","depth":0,"parameterNumber":3,"parameterNumberName":"V-component_of_WINDS"},"data":[0,0,0,0,0,0,0,0,0,0,0,0,0,0,0,0,0,0,0,0,0,0,0,0,0,0,0,0,0,0,0,0,0,0,0,0,0,0,0,0,0,0,0,0,0,0,0,0,0,0,0,0,0,0,0,0,0,0,-5.3714,-5.3714,0,-5.371,-5.371,-5.371,-5.363,-5.3628,-5.3626,-5.3624,-5.362,-5.3622,-5.3624,0,0,0,0,0,0,0,0,0,0,0,0,0,-5.3649,-5.3651,-5.3714,-5.3714,-5.3714,-5.371,-5.371,-5.371,-5.3631,-5.3628,-5.3626,-5.3623,-5.362,-5.3622,-5.3624,0,0,0,0,0,0,0,0,0,0,0,0,0,-5.3665,-5.3652,-5.3714,-5.3673,-5.367,-5.3711,-5.371,-5.371,-5.3631,-5.3628,-5.3625,-5.3622,-5.3619,-5.3622,-5.3624,-5.3703,0,0,-5.3633,-5.3634,0,0,0,0,0,0,0,0,-5.3664,-5.3667,-5.3679,-5.3676,-5.3672,-5.3668,-5.3686,-5.3708,-5.3632,-5.3646,-5.3624,-5.3621,-5.3639,-5.364,-5.3646,-5.3703,-5.3703,-5.3633,-5.3635,-5.3636,-5.3637,0,0,0,0,0,0,0,-5.3663,-5.3667,-5.3712,-5.368,-5.3675,-5.3655,-5.3654,-5.369,-5.366,-5.3644,-5.3639,-5.3639,-5.3636,-5.3643,-5.3645,-5.3703,-5.3633,-5.3635,-5.3637,-5.3638,-5.3825,-5.3828,0,0,0,0,0,0,-5.3668,-5.3667,-5.3712,-5.3712,-5.3661,-5.3659,-5.3657,-5.3672,-5.3659,-5.3654,-5.3642,-5.3636,-5.364,-5.3642,-5.3645,-5.3736,-5.3636,-5.3638,-5.364,-5.3822,-5.3826,-5.3829,0,0,0,0,0,0,-5.3667,-5.3673,-5.3712,-5.3688,-5.3691,-5.3663,-5.368,-5.3674,-5.3681,-5.3657,-5.3651,-5.3655,-5.3638,-5.3641,-5.3689,-5.3735,-5.364,-5.3642,-5.3818,-5.3823,-5.3827,-5.392,0,0,0,0,0,0,-5.3665,-5.3673,-5.3703,-5.3689,-5.3693,-5.3758,-5.3683,-5.3676,-5.3686,-5.3678,-5.3668,-5.3663,-5.3636,-5.3686,-5.3692,-5.3737,-5.3644,-5.3813,-5.382,-5.3826,-5.3913,-5.3928,-5.3941,0,0,0,0,0,-5.3663,-5.3729,-5.3705,-5.3711,-5.373,-5.3761,-5.3763,-5.373,-5.369,-5.372,-5.3704,-5.3664,-5.3729,-5.3691,-5.3698,-5.3744,-5.381,-5.3818,-5.3825,-5.3907,-5.3925,-5.394,0,0,0,0,0,0,-5.3748,-5.3726,-5.3699,-5.3762,-5.3764,-5.3747,-5.3783,-5.375,-5.3763,-5.3754,-5.3713,-5.3711,-5.3766,-5.376,-5.3718,-5.382,-5.3762,-5.3772,-5.3822,-5.3839,-5.3853,-5.3853,-5.3646,0,0,0,0,0,-5.3774,-5.3801,-5.378,-5.3838,-5.384,-5.3812,-5.3824,-5.3799,-5.3799,-5.3799,-5.3787,-5.3788,-5.3809,-5.3824,-5.3841,-5.3912,-5.3909,-5.3947,-5.3961,-5.3972,-5.3981,-5.4018,-5.4035,-5.3854,-5.3854,-5.3854,0,0,-5.3828,-5.3819,-5.3839,-5.3855,-5.3853,-5.3882,-5.3813,-5.3846,-5.3867,-5.3804,-5.3849,-5.3841,-5.3839,-5.3899,-5.3925,-5.3896,-5.403,-5.3981,-5.3991,-5.3993,-5.4027,-5.4044,-5.406,-5.3859,-5.3858,-5.3857,0,0,-5.3941,-5.3937,-5.3985,-5.3985,-5.3984,-5.3964,-5.3976,-5.3964,-5.3956,-5.4001,-5.3954,-5.3978,-5.4015,-5.4016,-5.4022,-5.4136,-5.4099,-5.4143,-5.4215,-5.4251,-5.4266,-5.4278,-5.4319,-5.4335,-5.4151,-5.4151,-5.4151,0,-5.4009,-5.4051,-5.4014,-5.4051,-5.4059,-5.4003,-5.4051,-5.4053,-5.4057,-5.4064,-5.4031,-5.4076,-5.4071,-5.4131,-5.4159,-5.4165,-5.4177,-5.4144,-5.4267,-5.4279,-5.429,-5.4329,-5.4344,-5.4157,-5.4156,-5.4155,-5.4155,0,-5.4134,-5.4163,-5.4202,-5.4208,-5.4221,-5.4263,-5.4233,-5.425,-5.4224,-5.4208,-5.4255,-5.4247,-5.4262,-5.4274,-5.4248,-5.4331,-5.4313,-5.4274,-5.4215,-5.4313,-5.4349,-5.4363,-5.4164,-5.4162,-5.4161,-5.4159,0,0,-5.43,-5.4286,-5.4301,-5.4303,-5.4298,-5.432,-5.4359,-5.4375,-5.4391,-5.4395,-5.4428,-5.446,-5.4424,-5.4431,-5.4404,-5.4437,-5.4528,-5.4394,-5.4393,-5.442,-5.4619,-5.4649,-5.4667,-5.4504,-5.4506,-5.4508,-5.4619,0,-5.441,-5.4478,-5.4446,-5.4517,-5.4545,-5.4492,-5.4526,-5.4527,-5.4513,-5.4534,-5.4518,-5.4542,-5.4493,-5.4496,-5.4526,-5.4511,-5.4568,-5.4502,-5.4534,-5.4535,-5.4536,-5.4685,-5.4717,-5.4822,-5.4633,-5.4635,-5.4637,0,-5.4548,-5.4559,-5.4633,-5.4623,-5.4633,-5.4665,-5.4677,-5.4697,-5.4696,-5.4684,-5.4692,-5.4658,-5.4696,-5.4638,-5.469,-5.4646,-5.4657,-5.4652,-5.4655,-5.4657,-5.4593,-5.4692,-5.4855,-5.4871,-5.4659,-5.4657,-5.4655,0,-5.4663,-5.4697,-5.4745,-5.4749,-5.4738,-5.4762,-5.4758,-5.4754,-5.4765,-5.4776,-5.4783,-5.4797,-5.4805,-5.4817,-5.4788,-5.4748,-5.4845,-5.4784,-5.4836,-5.4837,-5.4859,-5.4858,-5.5026,-5.4865,-5.4865,-5.4865,-5.4864,0,-5.479,-5.4837,-5.4797,-5.4827,-5.4879,-5.4842,-5.4894,-5.4884,-5.4882,-5.4909,-5.4863,-5.489,-5.485,-5.4873,-5.485,-5.4897,-5.4901,-5.4892,-5.4886,-5.4897,-5.4898,-5.4904,-5.4896,-5.4869,-5.4868,-5.4867,-5.4866,0,-5.4928,-5.4902,-5.4952,-5.4938,-5.4935,-5.4974,-5.4962,-5.4989,-5.4972,-5.5007,-5.5013,-5.4987,-5.5011,-5.4983,-5.5005,-5.499,-5.5054,-5.5036,-5.5055,-5.505,-5.5104,-5.51,-5.5282,-5.5305,-5.5129,-5.513,-5.5132,0,-5.5011,-5.5046,-5.5036,-5.5051,-5.505,-5.5075,-5.5087,-5.5051,-5.5065,-5.5067,-5.5094,-5.5115,-5.5129,-5.5171,-5.5153,-5.517,-5.5153,-5.5216,-5.5155,-5.5165,-5.5155,-5.5153,-5.5157,-5.5228,-5.523,-5.5232,-5.5234,0,-5.5161,-5.5146,-5.5165,-5.518,-5.5195,-5.5205,-5.5211,-5.5226,-5.5189,-5.5207,-5.5231,-5.5243,-5.5265,-5.5286,-5.5298,-5.5294,-5.5259,-5.5253,-5.5266,-5.5278,-5.5287,-5.5284,-5.5089,-5.5249,-5.5247,-5.5246,-5.5245,-5.5245,-5.5274,-5.5303,-5.53,-5.5323,-5.5324,-5.5331,-5.5356,-5.5342,-5.5362,-5.5378,-5.5356,-5.5386,-5.5385,-5.5397,-5.5397,-5.542,-5.5394,-5.5412,-5.5417,-5.5423,-5.5431,-5.5283,-5.5422,-5.5422,-5.5421,-5.5421,-5.5421,0,-5.5422,-5.5418,-5.5439,-5.5449,-5.5467,-5.5431,-5.5436,-5.5453,-5.5481,-5.5483,-5.5498,-5.5526,-5.5547,-5.5531,-5.5548,-5.557,-5.5554,-5.5576,-5.5574,-5.5574,-5.5454,-5.5441,-5.5588,-5.5588,-5.5588,-5.5588,-5.5588,-5.5588,-5.5501,-5.5549,-5.5535,-5.5583,-5.5578,-5.5608,-5.5614,-5.562,-5.5621,-5.5655,-5.5672,-5.5661,-5.5656,-5.5672,-5.569,-5.5684,-5.5693,-5.5721,-5.571,-5.5599,-5.5582,-5.5567,-5.5554,-5.5723,-5.5723,-5.5828,-5.5829,-5.583]}]]